Regional Weather Roundup
Issued by NWS

Home | Current Version | Previous Version | Graphics & Text | Print | Product List | Glossary On
Versions: 1 2 3 4 5 6 7 8 9 10 11 12 13 14 15 16 17 18 19 20 21 22 23 24 25 26 27 28 29 30 31 32 33 34 35 36 37 38 39 40 41 42 43 44 45 46 47 48 49 50
000
ASUS43 KMKX 220400
RWRWI

WISCONSIN REGIONAL WEATHER ROUNDUP
NATIONAL WEATHER SERVICE MILWAUKEE/SULLIVAN WI
1100 PM CDT SAT OCT 21 2017

NOTE: "FAIR" INDICATES FEW OR NO CLOUDS BELOW 12,000 FEET WITH NO
SIGNIFICANT WEATHER AND/OR OBSTRUCTIONS TO VISIBILITY.

WIZ001-002-006>008-014>016-023>028-220500-
NORTHWEST WISCONSIN

CITY           SKY/WX    TMP DP  RH WIND       PRES   REMARKS
SUPERIOR ARPT  CLOUDY    65  61  85 S9        29.65S
ASHLAND        LGT RAIN  64  60  87 S7        29.71S
HAYWARD        LGT RAIN  63  60  90 S8        29.73R
SIREN          RAIN      55  50  85 W12       29.76R
CUMBERLAND     LGT RAIN  57  54  88 W16       29.75R
RICE LAKE      CLOUDY    64  60  88 S24G30    29.75R
CHETEK         LGT RAIN  63  62  96 S8G18     29.75R
LADYSMITH      CLOUDY    65  60  82 S9        29.78R
EAU CLAIRE     NOT AVBL
MENOMONIE      CLOUDY    58  58 100 W13       29.78R
NEW RICHMOND   CLOUDY    55  48  78 W8        29.79R
OSCEOLA        CLOUDY    54  54 100 SW3       29.81R
$$

WIZ003>005-009-010-017-018-220500-
NORTH CENTRAL WISCONSIN

CITY           SKY/WX    TMP DP  RH WIND       PRES   REMARKS
MANITOWISH WTR CLOUDY    65  59  80 S10G17    29.79S
ARBOR VITAE    CLOUDY    69  59  72 S12G22    29.81R
WOODRUFF       CLOUDY    69  59  72 S12G22    29.81R
RHINELANDER    CLOUDY    67  58  72 S8G20     29.83S
EAGLE RIVER    NOT AVBL
LAND O LAKES   MOCLDY    66  56  68 S13G18    29.83S
PHILLIPS       CLOUDY    67  59  75 S13G20    29.77S
TOMAHAWK       CLOUDY    65  56  74 SE3       29.82R
MEDFORD        CLOUDY    65  57  74 S15       29.81S
MERRILL        CLOUDY    67  58  70 S9        29.83R
$$

WIZ029-030-035-036-043>047-220500-
CENTRAL WISCONSIN

CITY           SKY/WX    TMP DP  RH WIND       PRES   REMARKS
WAUSAU         PTCLDY    67  57  70 S15       29.83R
MOSINEE        PTCLDY    66  57  72 S15G24    29.85R
MARSHFIELD     CLOUDY    66  56  70 S8        29.82R
STEVENS POINT  MOCLDY    66  56  70 S10G16    29.85S
WAUPACA        PTCLDY    69  57  67 S13       29.87R
WAUTOMA        PTCLDY   N/A N/A N/A S10       29.87S
WISC RAPIDS    CLOUDY    69  59  70 S12       29.84S
CAMP DOUGLAS   CLOUDY    70  61  73 S13G22    29.82R
$$

WIZ011>013-019>022-031-037>040-048>050-220500-
NORTHEAST WISCONSIN

CITY           SKY/WX    TMP DP  RH WIND       PRES   REMARKS
ANTIGO         CLOUDY    65  56  71 S14       29.87R
SHAWANO        CLEAR     65  56  74 S3        29.87S
OCONTO         CLEAR     64  56  78 S10       29.89S
STURGEON BAY   CLEAR     62  56  80 S18G30    29.92S
GREEN BAY      CLEAR     66  59  78 S12       29.90R
MANITOWOC      PTCLDY    61  56  83 S21       29.94S
APPLETON       PTCLDY    64  54  68 S12       29.88S
CLINTONVILLE   CLEAR     66  55  68 S8        29.87R
OSHKOSH        PTCLDY    68  59  73 S16       29.89S
$$

WIZ032>034-041-042-053>061-220500-
SOUTHWEST WISCONSIN

CITY           SKY/WX    TMP DP  RH WIND       PRES   REMARKS
LA CROSSE      RAIN      63  61  93 S8        29.82R
SPARTA         CLOUDY    71  60  68 S15G26    29.80R
VIROQUA        CLOUDY    69  62  78 S20G26    29.82R
BOSCOBEL       CLOUDY    73  61  65 S12G21    29.83R
PRAIRIE DU CHI CLOUDY    72  59  64 SE15G22   29.81S
PLATTEVILLE    CLOUDY    70  62  75 S18G24    29.88R
$$

WIZ056-057-062-063-064-067-068-220500-
SOUTH CENTRAL WISCONSIN

CITY           SKY/WX    TMP DP  RH WIND       PRES   REMARKS
REEDSBURG      PTCLDY    69  60  73 S16G22    29.86R
BARABOO/DELLS  PTCLDY    68  57  68 S16       29.87S
LONE ROCK      PTCLDY    71  62  73 S15G22    29.85S
MINERAL POINT  MOCLDY    70  63  78 S14G21    29.89R
MADISON        PTCLDY    69  58  67 S13G22    29.90S
MIDDLETON      PTCLDY    70  58  66 S15G22    29.90S
WATERTOWN      CLOUDY    69  60  73 S15G22    29.92R
MONROE         CLOUDY    70  55  60 S15       29.92R
JANESVILLE     MOCLDY    70  57  64 S12G18    29.93R
$$

WIZ051-052-058>065-066-070>072-220500-
SOUTHEAST WISCONSIN

CITY           SKY/WX    TMP DP  RH WIND       PRES   REMARKS
MILWAUKEE      MOCLDY    68  58  70 S10       29.97R
WAUKESHA       MOCLDY    66  55  68 S10G20    29.96
MILWAUKEE/TIMM PTCLDY    68  54  60 S12       29.97R
RACINE         PTCLDY    64  57  78 S10       29.99S
BURLINGTON     CLOUDY    67  59  74 S6        29.96R
KENOSHA        PTCLDY    69  57  65 S13       29.98R
FOND DU LAC    PTCLDY    70  56  61 S14G22    29.91S
SHEBOYGAN      CLEAR     62  58  86 S14       29.94F
WEST BEND      CLOUDY    63  55  77 S6        29.95S
JUNEAU         CLOUDY    69  58  68 S15G26    29.93R
$$

LSZ147-162-220500-
LAKE SUPERIOR

STATION/POSITION TIME  TEMP    WIND        PRES    WAVE
                       AIR SEA DIR/SP/G            HT/PER
                 (UTC) (F)     (DEG/KT/KT) (MB)    (FT/S)
W MID LAKE BUOY  0250   59 52              1006.2S   1/ 4
DEVILS ISLAND    0300   66     180/ 10/ 13 1005.4F
PORT WING        0140          180/ 10/ 18 1005.1
SAXON HARBOR     0330   71     200/  7/ 12 1006.1R
$$

LMZ867-665-643>646-220500-
LAKE MICHIGAN

STATION/POSITION TIME  TEMP    WIND        PRES    WAVE
                       AIR SEA DIR/SP/G            HT/PER
                 (UTC) (F)     (DEG/KT/KT) (MB)    (FT/S)
S GREEN BAY BUOY 0330   64 58  170/ 21/ 27 1011.8F
N MID LAKE BUOY  0250   64 58  170/ 21/ 25 1013.9F   6/ 6
NORTHPORT PIER   0340   60     150/ 10/ 16 1013.2F
KEWAUNEE LAKESHO 0330   54     180/ 12/ 14 1013.1F
SHEBOYGAN LAKESH 0300   57     180/ 16/ 17 1014.3S
PORT WASHINGTON  0340   57     200/  7/ 11 1015.2F
ATWATER BUOY     0209   58 52  160/ 16/ 19 1014.5F
MILWAUKEE LAKESH 0350   58     150/ 14/ 15   N/A
S MID LAKE BUOY  0250   64 61  140/ 16/ 17 1016.1F   3/ 4
KENOSHA   LAKESH 0300   58     170/ 14/ 16 1014.9
$$

TC  - TEMPERATURE IN CELSIUS
VSB - VISIBILITY IN STATUTE MILES
WCI - WIND CHILL INDEX
HX  - HEAT INDEX




USA.gov is the U.S. government's official web portal to all federal, state and local government web resources and services.